User: anonymous   Login
Location: Unspecified
(0.0000°N, 0.0000°E)
Time: 10:15:30
(UTC+00:00)
Language:

STARS-ME - Orbit

View from above orbital plane
View from above orbital plane
View from above satellite
View from above satellite

Ground track
Ground track

The orbit data is extracted from the following two-line orbital elements,

1 43640U 98067PQ  19111.89257286 +.00008629 +00000-0 +12126-3 0  9997
2 43640 051.6382 277.2958 0005440 238.4150 121.6311 15.57572893030718
Epoch (UTC): 21 April 2019 21:25:18
Eccentricity: 0.0005440
inclination: 51.6382°
perigee height: 391 km
apogee height: 398 km
right ascension of ascending node: 277.2958°
argument of perigee: 238.4150°
revolutions per day: 15.57572893
mean anomaly at epoch: 121.6311°
orbit number at epoch: 3071

The dashed part of the orbit path shows where the satellite is in the earth's shadow,  

DLR